Location: LDNL
(36.4545°S, 141.6685°E)
Time: 11:04:34
(UTC+10:00)

Tiros 1 despin weight - Pass Details

Date: 12 August 2022
Orbit: 590 x 639 km, 48.2° (Epoch: 23 September)

Event Time Altitude Azimuth Distance (km) Brightness Sun altitude
Rises 07:56:53 0° 245° (WSW) 2,962 ? 6.1°
Reaches altitude 10° 07:59:32 10° 258° (WSW) 2,045 ? 6.6°
Maximum altitude 08:03:25 26° 313° (NW) 1,271 ? 7.3°
Drops below altitude 10° 08:07:15 10° 9° (N) 2,014 ? 8.0°
Sets 08:09:51 0° 22° (NNE) 2,908 ? 8.5°
